EW9889 Weather Reports


time (UTC)temp
F
wind
direction
speed
knots
gust
knots
rain 1hr
in
rain 24hr
in
rain mn
in
humidity
%
barometer
mb
20260507195513 86 71 4.3 10.4 0.00 0.00 0.00 70 1015.2
20260507195013 86 46 4.3 10.4 0.00 0.00 0.00 70 1015.2
20260507194513 86 355 4.3 11.3 0.00 0.00 0.00 70 1015.2
20260507194011 86 30 2.6 11.3 0.00 0.00 0.00 71 1015.3
20260507193511 86 82 4.3 12.2 0.00 0.00 0.00 72 1015.3
20260507193011 85 88 6.1 12.2 0.00 0.00 0.00 72 1015.4
20260507192511 86 83 5.2 11.3 0.00 0.00 0.00 70 1015.5
20260507192010 86 98 3.5 12.2 0.00 0.00 0.00 71 1015.5
20260507191511 86 50 6.1 12.2 0.00 0.00 0.00 70 1015.3
20260507191010 87 40 3.5 11.3 0.00 0.00 0.00 70 1015.4
20260507190510 87 52 2.6 12.2 0.00 0.00 0.00 71 1015.4
20260507190020 87 345 4.3 12.2 0.00 0.00 0.00 70 1015.4
20260507185509 87 309 1.7 9.6 0.00 0.00 0.00 70 1015.5
20260507185010 87 86 5.2 9.6 0.00 0.00 0.00 68 1015.6
20260507184510 88 51 2.6 9.6 0.00 0.00 0.00 69 1015.6
20260507184009 88 336 0.9 8.7 0.00 0.00 0.00 68 1015.7
20260507183509 88 61 1.7 9.6 0.00 0.00 0.00 68 1015.8
20260507183016 87 57 5.2 10.4 0.00 0.00 0.00 65 1015.9
20260507182510 89 89 1.7 7.8 0.00 0.00 0.00 63 1016.0
20260507182011 89 349 2.6 7.8 0.00 0.00 0.00 63 1016.0
20260507181508 89 61 1.7 5.2 0.00 0.00 0.00 64 1016.2
20260507181009 89 55 1.7 7.0 0.00 0.00 0.00 63 1016.2
20260507180508 91 355 1.7 7.0 0.00 0.00 0.00 58 1016.3
20260507180010 91 85 1.7 7.8 0.00 0.00 0.00 61 1016.2
20260507175507 90 139 0.9 7.8 0.00 0.00 0.00 63 1016.2
20260507175004 89 252 1.7 10.4 0.00 0.00 0.00 62 1016.3
20260507174508 89 44 2.6 10.4 0.00 0.00 0.00 61 1016.3
20260507174004 89 338 1.7 9.6 0.00 0.00 0.00 63 1016.3
20260507173505 88 306 1.7 9.6 0.00 0.00 0.00 64 1016.5
20260507173004 88 43 2.6 8.7 0.00 0.00 0.00 64 1016.5
20260507172502 88 117 2.6 7.8 0.00 0.00 0.00 61 1016.6
20260507172002 89 28 1.7 9.6 0.00 0.00 0.00 63 1016.7
20260507171604 89 128 0.9 9.6 0.00 0.00 0.00 63 1016.7
20260507171059 90 67 1.7 7.0 0.00 0.00 0.00 61 1016.7
20260507170603 90 98 1.7 7.0 0.00 0.00 0.00 62 1016.7
20260507170059 90 58 0.9 7.0 0.00 0.00 0.00 63 1016.7
20260507165557 90 346 1.7 7.8 0.00 0.00 0.00 63 1016.8
20260507165057 91 313 2.6 7.8 0.00 0.00 0.00 60 1016.9
20260507164557 91 231 1.7 7.8 0.00 0.00 0.00 59 1016.9
20260507164057 91 294 2.6 7.8 0.00 0.00 0.00 60 1017.1
20260507163558 91 340 1.7 5.2 0.00 0.00 0.00 60 1017.0
20260507163054 90 325 0.9 5.2 0.00 0.00 0.00 61 1016.9
20260507162554 90 335 1.7 5.2 0.00 0.00 0.00 60 1017.2
20260507162058 89 317 1.7 4.3 0.00 0.00 0.00 60 1017.1
20260507161553 89 259 0.9 7.8 0.00 0.00 0.00 63 1017.4
20260507161053 90 313 2.6 7.8 0.00 0.00 0.00 61 1017.4
20260507160553 90 265 0.9 6.1 0.00 0.00 0.00 61 1017.4
20260507160058 90 304 1.7 6.1 0.00 0.00 0.00 62 1017.5
20260507155550 90 297 0.9 6.1 0.00 0.00 0.00 62 1017.4
20260507155050 90 284 2.6 5.2 0.00 0.00 0.00 62 1017.4
20260507154550 90 262 1.7 4.3 0.00 0.00 0.00 63 1017.5
20260507154051 90 351 0.9 5.2 0.00 0.00 0.00 63 1017.5
20260507153551 90 302 0.9 6.1 0.00 0.00 0.00 64 1017.5
20260507153052 90 293 1.7 6.1 0.00 0.00 0.00 63 1017.6
20260507152550 90 258 1.7 6.1 0.00 0.00 0.00 61 1017.6
20260507152048 90 290 1.7 6.1 0.00 0.00 0.00 60 1017.6
20260507151545 89 307 0.0 6.1 0.00 0.00 0.00 63 1017.6
20260507151048 89 261 2.6 6.1 0.00 0.00 0.00 61 1017.6
20260507150546 89 302 1.7 5.2 0.00 0.00 0.00 63 1017.6
20260507150047 89 339 0.9 6.1 0.00 0.00 0.00 62 1017.7
20260507145546 89 226 1.7 6.1 0.00 0.00 0.00 63 1017.8
20260507145044 88 349 0.9 6.1 0.00 0.00 0.00 63 1017.8
20260507144549 88 338 1.7 7.0 0.00 0.00 0.00 63 1017.7
20260507144044 88 250 1.7 7.0 0.00 0.00 0.00 62 1017.8
20260507143544 89 355 0.9 5.2 0.00 0.00 0.00 62 1017.8
20260507143044 89 290 1.7 5.2 0.00 0.00 0.00 62 1017.7
20260507142544 89 300 1.7 4.3 0.00 0.00 0.00 63 1017.6
20260507142043 89 250 0.9 4.3 0.00 0.00 0.00 61 1017.6
20260507141547 89 231 0.9 5.2 0.00 0.00 0.00 61 1017.7
20260507141043 89 317 1.7 5.2 0.00 0.00 0.00 61 1017.7
20260507140543 89 355 2.6 5.2 0.00 0.00 0.00 62 1017.6
20260507140104 89 294 0.9 4.3 0.00 0.00 0.00 63 1017.7
20260507135541 89 256 1.7 4.3 0.00 0.00 0.00 61 1017.6
20260507135040 89 298 0.0 5.2 0.00 0.00 0.00 62 1017.8
20260507134538 88 348 0.9 3.5 0.00 0.00 0.00 63 1017.7
20260507134037 88 285 0.0 7.0 0.00 0.00 0.00 66 1017.6
20260507133540 88 316 1.7 7.0 0.00 0.00 0.00 67 1017.5
20260507133036 87 290 0.9 2.6 0.00 0.00 0.00 66 1017.5
20260507132535 87 351 0.9 3.5 0.00 0.00 0.00 65 1017.5
20260507132036 87 286 0.9 3.5 0.00 0.00 0.00 65 1017.6
20260507131536 87 273 1.7 3.5 0.00 0.00 0.00 65 1017.6
20260507131035 87 296 0.9 3.5 0.00 0.00 0.00 64 1017.5
20260507130534 87 279 0.0 3.5 0.00 0.00 0.00 66 1017.4
20260507130031 86 296 0.9 3.5 0.00 0.00 0.00 65 1017.4
20260507125534 86 306 0.9 2.6 0.00 0.00 0.00 67 1017.5
20260507125029 86 74 0.0 1.7 0.00 0.00 0.00 66 1017.6
20260507124528 86 39 0.0 1.7 0.00 0.00 0.00 66 1017.4
20260507124028 86 184 0.0 2.6 0.00 0.00 0.00 66 1017.5
20260507123526 85 350 0.0 2.6 0.00 0.00 0.00 68 1017.3
20260507123032 85 223 0.9 2.6 0.00 0.00 0.00 69 1017.3
20260507122528 85 300 0.0 2.6 0.00 0.00 0.00 69 1017.2
20260507122024 85 282 0.9 2.6 0.00 0.00 0.00 68 1017.2
20260507121523 85 190 0.0 1.7 0.00 0.00 0.00 67 1017.1
20260507121022 84 200 0.0 1.7 0.00 0.00 0.00 69 1017.1
20260507120521 84 197 0.0 1.7 0.00 0.00 0.00 70 1017.0
20260507120019 83 90 0.0 1.7 0.00 0.00 0.00 69 1016.8
20260507115518 83 115 0.0 1.7 0.00 0.00 0.00 70 1016.7
20260507115016 82 247 0.0 1.7 0.00 0.00 0.00 72 1016.5
20260507114515 82 227 0.9 1.7 0.00 0.00 0.00 74 1016.5
20260507114013 81 249 0.0 1.7 0.00 0.00 0.00 77 1016.4
20260507113512 81 217 0.9 1.7 0.00 0.00 0.00 76 1016.3
20260507113014 81 207 0.0 1.7 0.00 0.00 0.00 78 1016.3
20260507112511 80 70 0.0 0.9 0.00 0.00 0.00 79 1016.3
20260507112015 79 70 0.0 0.9 0.00 0.00 0.00 80 1016.4
20260507111511 78 70 0.0 1.7 0.00 0.00 0.00 81 1016.4
20260507111009 77 70 0.0 2.6 0.00 0.00 0.00 82 1016.2
20260507110512 76 70 0.9 2.6 0.00 0.00 0.00 82 1016.1
20260507110009 76 70 0.9 2.6 0.00 0.00 0.00 83 1016.2
20260507105510 76 70 0.9 2.6 0.00 0.00 0.00 83 1016.3
20260507105008 75 65 0.9 3.5 0.00 0.00 0.00 84 1016.3
20260507104512 75 61 1.7 3.5 0.00 0.00 0.00 84 1016.2
20260507104009 74 65 1.7 3.5 0.00 0.00 0.00 85 1016.2
20260507103508 74 76 1.7 2.6 0.00 0.00 0.00 86 1016.2
20260507103009 74 79 0.9 3.5 0.00 0.00 0.00 87 1016.1
20260507102512 73 60 1.7 3.5 0.00 0.00 0.00 87 1016.2
20260507102009 73 68 1.7 2.6 0.00 0.00 0.00 87 1016.1
20260507101508 73 63 1.7 2.6 0.00 0.00 0.00 87 1016.1
20260507101006 73 58 0.9 2.6 0.00 0.00 0.00 87 1016.1
20260507100507 73 69 1.7 2.6 0.00 0.00 0.00 86 1016.0
20260507100006 73 57 0.9 2.6 0.00 0.00 0.00 86 1015.9
20260507095505 74 69 1.7 2.6 0.00 0.00 0.00 86 1015.8
20260507095005 74 77 0.9 2.6 0.00 0.00 0.00 86 1015.8
20260507094503 74 72 0.0 1.7 0.00 0.00 0.00 86 1015.6
20260507094004 74 74 0.0 1.7 0.00 0.00 0.00 86 1015.5
20260507093502 74 74 0.0 2.6 0.00 0.00 0.00 86 1015.5
20260507093003 75 74 0.0 2.6 0.00 0.00 0.00 85 1015.4
20260507092502 75 59 0.9 1.7 0.00 0.00 0.00 85 1015.4
20260507092101 76 91 0.9 1.7 0.00 0.00 0.00 84 1015.3
20260507091606 76 89 0.0 1.7 0.00 0.00 0.00 84 1015.4
20260507091059 76 91 0.0 3.5 0.00 0.00 0.00 84 1015.3
20260507090600 76 73 0.9 4.3 0.00 0.00 0.00 84 1015.3
20260507090058 75 90 2.6 4.3 0.00 0.00 0.00 85 1015.4
20260507085559 75 75 2.6 3.5 0.00 0.00 0.00 86 1015.4
20260507085058 76 89 2.6 5.2 0.00 0.00 0.00 86 1015.4
20260507084558 76 84 2.6 5.2 0.00 0.00 0.00 86 1015.5
20260507084057 75 83 2.6 4.3 0.00 0.00 0.00 87 1015.6
20260507083557 75 82 3.5 4.3 0.00 0.00 0.00 88 1015.7
20260507083103 75 81 3.5 5.2 0.00 0.00 0.00 88 1015.7
20260507082558 75 80 2.6 3.5 0.00 0.00 0.00 88 1015.7
20260507082056 75 83 1.7 2.6 0.00 0.00 0.00 89 1015.7
20260507081556 75 86 0.9 1.7 0.00 0.00 0.00 89 1015.8
20260507081056 75 73 0.0 1.7 0.00 0.00 0.00 89 1015.7
20260507080554 75 73 0.0 2.6 0.00 0.00 0.00 88 1015.6
20260507080121 75 73 0.9 3.5 0.00 0.00 0.00 88 1015.5
20260507075556 75 86 1.7 3.5 0.00 0.00 0.00 88 1015.6
20260507075053 75 84 1.7 3.5 0.00 0.00 0.00 88 1015.5
20260507074601 75 65 1.7 2.6 0.00 0.00 0.00 88 1015.5
20260507074052 75 105 0.0 2.6 0.00 0.00 0.00 88 1015.6
20260507073551 75 68 0.9 3.5 0.00 0.00 0.00 88 1015.6
20260507073059 76 89 1.7 3.5 0.00 0.00 0.00 87 1015.7
20260507072550 76 58 0.9 2.6 0.00 0.00 0.00 87 1015.7
20260507072049 76 60 0.0 2.6 0.00 0.00 0.00 86 1015.7
20260507071600 77 58 1.7 2.6 0.00 0.00 0.00 85 1015.8
20260507071045 77 69 0.0 1.7 0.00 0.00 0.00 84 1015.7
20260507070544 78 69 0.0 1.7 0.00 0.00 0.00 83 1015.9
20260507070043 78 69 0.9 2.6 0.00 0.00 0.00 83 1015.9
20260507065543 79 130 0.9 2.6 0.00 0.00 0.00 82 1015.9
20260507065041 79 106 0.9 2.6 0.00 0.00 0.00 82 1016.0
20260507064546 79 159 0.9 3.5 0.00 0.00 0.00 81 1016.0
20260507064040 79 135 0.9 4.3 0.00 0.00 0.00 81 1016.1
20260507063539 79 221 1.7 5.2 0.00 0.00 0.00 80 1016.1
20260507063040 79 188 0.9 3.5 0.00 0.00 0.00 80 1016.1
20260507062537 79 121 0.9 4.3 0.00 0.00 0.00 81 1016.1
20260507062037 79 169 0.0 1.7 0.00 0.00 0.00 80 1016.1
20260507061536 80 189 0.0 1.7 0.00 0.00 0.00 79 1016.3
20260507061034 80 161 0.0 1.7 0.00 0.00 0.00 80 1016.3
20260507060533 80 162 0.0 1.7 0.00 0.00 0.00 79 1016.4
20260507060033 80 139 0.0 1.7 0.00 0.00 0.00 79 1016.5
20260507055533 80 172 0.0 1.7 0.00 0.00 0.00 79 1016.5
20260507055032 80 216 0.0 3.5 0.00 0.00 0.00 79 1016.5
20260507054532 80 157 0.9 3.5 0.00 0.00 0.00 79 1016.6
20260507054030 80 183 0.0 4.3 0.00 0.00 0.00 80 1016.8
20260507053530 80 229 0.9 4.3 0.00 0.00 0.00 81 1016.8
20260507053030 80 207 0.0 3.5 0.00 0.00 0.00 81 1017.0
20260507052529 80 173 0.0 3.5 0.00 0.00 0.00 81 1016.9
20260507052028 80 167 0.9 3.5 0.00 0.00 0.00 81 1016.9
20260507051528 80 188 0.9 3.5 0.00 0.00 0.00 82 1016.9
20260507051026 80 209 1.7 4.3 0.00 0.00 0.00 82 1017.0
20260507050525 80 229 1.7 3.5 0.00 0.00 0.00 83 1017.1
20260507050025 80 201 1.7 3.5 0.00 0.00 0.00 83 1017.2
20260507045524 80 201 0.9 5.2 0.00 0.00 0.00 82 1017.3
20260507045024 80 175 1.7 5.2 0.00 0.00 0.00 83 1017.4
20260507044524 80 224 1.7 4.3 0.00 0.00 0.00 83 1017.4
20260507044022 80 194 0.9 4.3 0.00 0.00 0.00 83 1017.5
20260507043522 80 204 1.7 4.3 0.00 0.00 0.00 83 1017.5
20260507043029 80 223 1.7 4.3 0.00 0.00 0.00 83 1017.6
20260507042520 80 209 0.0 1.7 0.00 0.00 0.00 83 1017.8
20260507042019 80 126 0.0 2.6 0.00 0.00 0.00 83 1017.8
20260507041519 81 112 0.0 2.6 0.00 0.00 0.00 83 1017.7
20260507041018 80 120 0.0 1.7 0.00 0.00 0.00 83 1017.8
20260507040517 80 159 0.0 2.6 0.00 0.00 0.00 83 1017.9
20260507040016 80 176 0.0 2.6 0.00 0.00 0.00 83 1018.0
20260507035515 80 148 0.9 2.6 0.00 0.00 0.00 83 1018.0
20260507035016 80 147 0.9 3.5 0.00 0.00 0.00 83 1018.1
20260507034616 80 92 0.9 3.5 0.00 0.00 0.00 83 1018.0
20260507034014 81 183 0.0 2.6 0.00 0.00 0.00 83 1018.2
20260507033519 81 154 0.0 2.6 0.00 0.00 0.00 83 1018.2
20260507033016 81 218 0.0 2.6 0.00 0.00 0.00 83 1018.2
20260507032514 80 157 1.7 2.6 0.00 0.00 0.00 83 1018.1
20260507032017 80 151 1.7 3.5 0.00 0.00 0.00 83 1018.2
20260507031514 80 144 0.9 2.6 0.00 0.00 0.00 84 1018.3
20260507031014 80 157 0.9 3.5 0.00 0.00 0.00 84 1018.2
20260507030513 80 176 0.0 0.9 0.00 0.00 0.00 84 1018.2
20260507030014 80 182 0.0 0.9 0.00 0.00 0.00 84 1018.3
20260507025513 80 194 0.0 1.7 0.00 0.00 0.00 84 1018.4
20260507025013 81 194 0.0 1.7 0.00 0.00 0.00 83 1018.3
20260507024513 81 105 0.0 0.9 0.00 0.00 0.00 83 1018.4
20260507024012 81 107 0.0 1.7 0.00 0.00 0.00 83 1018.3
20260507023517 81 85 0.0 1.7 0.00 0.00 0.00 82 1018.3
20260507023013 81 90 0.0 2.6 0.00 0.00 0.00 83 1018.2
20260507022513 81 75 0.0 2.6 0.00 0.00 0.00 82 1018.2
20260507022015 81 94 0.0 2.6 0.00 0.00 0.00 82 1018.2
20260507021515 81 93 0.9 2.6 0.00 0.00 0.00 82 1018.2
20260507021015 81 51 0.9 2.6 0.00 0.00 0.00 82 1018.1
20260507020512 81 61 1.7 5.2 0.00 0.00 0.00 82 1018.1
20260507020013 81 85 1.7 5.2 0.00 0.00 0.00 82 1018.1
20260507015510 81 67 2.6 5.2 0.00 0.00 0.00 82 1018.0
20260507015015 81 76 2.6 6.1 0.00 0.00 0.00 82 1017.8
20260507014511 81 79 2.6 6.1 0.00 0.00 0.00 82 1017.8
20260507014010 81 21 2.6 5.2 0.00 0.00 0.00 82 1017.7
20260507013510 81 67 1.7 5.2 0.00 0.00 0.00 82 1017.8
20260507013009 81 40 1.7 7.0 0.00 0.00 0.00 82 1017.7
20260507012514 81 76 2.6 4.3 0.00 0.00 0.00 82 1017.7
20260507012009 81 55 1.7 6.1 0.00 0.00 0.00 82 1017.7
20260507011516 81 66 1.7 6.1 0.00 0.00 0.00 82 1017.6
20260507011008 81 65 1.7 3.5 0.00 0.00 0.00 82 1017.5
20260507010509 81 103 2.6 4.3 0.00 0.00 0.00 82 1017.5
20260507010008 81 71 2.6 4.3 0.00 0.00 0.00 81 1017.6
20260507005512 81 82 1.7 4.3 0.00 0.00 0.00 81 1017.4
20260507005008 81 66 1.7 4.3 0.00 0.00 0.00 81 1017.5
20260507004511 81 45 2.6 5.2 0.00 0.00 0.00 81 1017.4
20260507004008 81 41 0.9 4.3 0.00 0.00 0.00 81 1017.4
20260507003508 81 49 0.9 2.6 0.00 0.00 0.00 80 1017.5
20260507003010 81 34 0.0 1.7 0.00 0.00 0.00 79 1017.5
20260507002507 81 57 0.0 1.7 0.00 0.00 0.00 79 1017.5
20260507002011 81 55 0.9 2.6 0.00 0.00 0.00 79 1017.5
20260507001507 81 39 0.9 2.6 0.00 0.00 0.00 78 1017.5
20260507001009 82 51 0.9 2.6 0.00 0.00 0.00 78 1017.4
20260507000509 82 50 0.0 2.6 0.00 0.00 0.00 77 1017.4
20260507000007 82 31 0.9 3.5 0.00 0.00 0.00 77 1017.4
20260506235507 82 41 0.9 3.5 0.00 0.00 0.00 76 1017.4
20260506235006 82 59 0.9 2.6 0.00 0.00 0.00 77 1017.4
20260506234510 82 12 0.9 2.6 0.00 0.00 0.00 77 1017.4
20260506234006 82 13 0.9 1.7 0.00 0.00 0.00 76 1017.3
20260506233506 82 39 0.9 3.5 0.00 0.00 0.00 76 1017.1
20260506233006 82 27 0.9 5.2 0.00 0.00 0.00 76 1017.1
20260506232606 82 38 0.9 5.2 0.00 0.00 0.00 76 1017.1
20260506232009 82 51 1.7 6.1 0.00 0.00 0.00 76 1017.1
20260506231505 82 63 1.7 6.1 0.00 0.00 0.00 75 1017.0
20260506231004 83 51 1.7 4.3 0.00 0.00 0.00 76 1017.0
20260506230504 83 105 0.9 3.5 0.00 0.00 0.00 76 1016.9
20260506230004 83 63 0.0 2.6 0.00 0.00 0.00 76 1016.8
20260506225504 83 100 0.9 2.6 0.00 0.00 0.00 76 1016.8
20260506225004 83 5 0.9 6.1 0.00 0.00 0.00 75 1016.6
20260506224505 83 338 2.6 6.1 0.00 0.00 0.00 75 1016.6
20260506224006 83 34 0.9 4.3 0.00 0.00 0.00 75 1016.4
20260506223504 83 36 1.7 5.2 0.00 0.00 0.00 75 1016.4
20260506223005 83 350 1.7 5.2 0.00 0.00 0.00 74 1016.4
20260506222504 83 76 0.9 4.3 0.00 0.00 0.00 74 1016.3
20260506222006 83 58 0.9 4.3 0.00 0.00 0.00 74 1016.3
20260506221504 84 67 1.7 4.3 0.00 0.00 0.00 74 1016.2
20260506221002 84 30 0.9 4.3 0.00 0.00 0.00 73 1016.3
20260506220502 84 55 0.9 6.1 0.00 0.00 0.00 74 1016.2
20260506220003 84 24 0.9 6.1 0.00 0.00 0.00 73 1016.1
20260506215501 84 5 0.9 7.0 0.00 0.00 0.00 73 1016.0
20260506215002 84 328 1.7 7.0 0.00 0.00 0.00 74 1015.9
20260506214502 84 43 0.9 5.2 0.00 0.00 0.00 73 1015.9
20260506214002 84 54 1.7 5.2 0.00 0.00 0.00 73 1016.0
20260506213501 84 59 1.7 5.2 0.00 0.00 0.00 73 1015.9
20260506213001 84 47 2.6 7.0 0.00 0.00 0.00 72 1015.8
20260506212503 85 78 2.6 7.0 0.00 0.00 0.00 71 1015.6
20260506212002 85 74 1.7 4.3 0.00 0.00 0.00 71 1015.7
20260506211501 85 76 1.7 4.3 0.00 0.00 0.00 71 1015.6
20260506211103 85 54 1.7 4.3 0.00 0.00 0.00 69 1015.6
20260506211002 85 65 0.9 4.3 0.00 0.00 0.00 69 1015.6
20260506210502 85 78 1.7 5.2 0.00 0.00 0.00 68 1015.6
20260506210121 85 360 0.9 7.0 0.00 0.00 0.00 68 1015.6
20260506205600 86 323 2.6 7.0 0.00 0.00 0.00 67 1015.7
20260506205101 86 344 1.7 9.6 0.00 0.00 0.00 68 1015.7
20260506204600 86 335 2.6 9.6 0.00 0.00 0.00 69 1015.7
20260506204100 86 329 1.7 5.2 0.00 0.00 0.00 66 1015.6
20260506203559 86 343 2.6 7.0 0.00 0.00 0.00 64 1015.6
20260506203143 87 69 2.6 7.0 0.00 0.00 0.00 64 1015.7
20260506202558 87 38 1.7 6.1 0.00 0.00 0.00 64 1015.7
20260506202059 86 252 0.9 7.8 0.00 0.00 0.00 65 1015.9
20260506201558 86 328 2.6 8.7 0.00 0.00 0.00 65 1015.7
20260506201059 86 75 4.3 8.7 0.00 0.00 0.00 63 1015.8
20260506200556 87 9 1.7 7.8 0.00 0.00 0.00 63 1016.0
20260506200056 87 295 1.7 9.6 0.00 0.00 0.00 63 1016.0